When you browse on this site, cookies collect data to enhance your experience and personalize the content and advertising you see.
Visit our Privacy Policy to learn more. By continuing to use the site, you agree to this use of cookies and data.
  • In Romania
  • List of Countries
  • For 7 days
  • Water Temperature
  • Satellite Maps
  • Weather Map
  • Weather Widgets
  • user-avatar
    Login

    Hourly Weather Kolodeznoe

    Today, 21 July, Sunday

    Time Temperature Precipitation Wind Pressure Humidity
    00:00 +14°C° 0 mm 4 mps 743 mmHg 91%
    01:00 +14°C° 0 mm 4 mps 743 mmHg 91%
    02:00 +13°C° 0 mm 4 mps 743 mmHg 92%
    03:00 +13°C° 0 mm 4 mps 744 mmHg 92%
    04:00 +13°C° 0 mm 4 mps 744 mmHg 91%
    05:00 +13°C° 0 mm 4 mps 744 mmHg 90%
    06:00 +13°C° 0 mm 4 mps 744 mmHg 89%
    07:00 +15°C° 0 mm 4 mps 744 mmHg 85%
    08:00 +17°C° 0 mm 4 mps 744 mmHg 81%
    09:00 +19°C° 0 mm 4 mps 744 mmHg 77%
    10:00 +20°C° 0.1 mm 4 mps 744 mmHg 75%
    11:00 +21°C° 0.1 mm 5 mps 744 mmHg 73%
    12:00 +22°C° 0.1 mm 5 mps 744 mmHg 70%
    13:00 +22°C° 0.5 mm 4 mps 744 mmHg 70%
    14:00 +23°C° 0.5 mm 4 mps 744 mmHg 70%
    15:00 +23°C° 0.5 mm 4 mps 744 mmHg 69%
    16:00 +23°C° 0.6 mm 4 mps 744 mmHg 71%
    17:00 +24°C° 0.6 mm 3 mps 744 mmHg 73%
    18:00 +22°C° 0.6 mm 3 mps 744 mmHg 75%
    19:00 +21°C° 0.6 mm 2 mps 744 mmHg 79%
    20:00 +19°C° 0.6 mm 2 mps 744 mmHg 82%
    21:00 +19°C° 0.6 mm 1 mps 744 mmHg 85%
    22:00 +18°C° 0 mm 1 mps 744 mmHg 86%
    23:00 +18°C° 0 mm 1 mps 744 mmHg 87%

    Tomorrow, 22 July, Monday

    Time Temperature Precipitation Wind Pressure Humidity
    00:00 +16°C° 0 mm 1 mps 744 mmHg 88%
    01:00 +16°C° 0 mm 1 mps 744 mmHg 89%
    02:00 +15°C° 0 mm 1 mps 744 mmHg 89%
    03:00 +15°C° 0 mm 1 mps 744 mmHg 90%
    04:00 +15°C° 0 mm 1 mps 744 mmHg 90%
    05:00 +16°C° 0 mm 1 mps 744 mmHg 90%
    06:00 +16°C° 0 mm 1 mps 744 mmHg 89%
    07:00 +17°C° 0 mm 0 mps 744 mmHg 85%
    08:00 +18°C° 0 mm 0 mps 744 mmHg 80%
    09:00 +20°C° 0 mm 0 mps 744 mmHg 76%
    10:00 +21°C° 0.5 mm 0 mps 744 mmHg 72%
    11:00 +24°C° 0.5 mm 1 mps 744 mmHg 67%
    12:00 +25°C° 0.5 mm 1 mps 744 mmHg 63%
    13:00 +25°C° 0.3 mm 1 mps 744 mmHg 61%
    14:00 +25°C° 0.3 mm 1 mps 743 mmHg 59%
    15:00 +26°C° 0.3 mm 1 mps 743 mmHg 57%
    16:00 +26°C° 0.1 mm 1 mps 743 mmHg 60%
    17:00 +26°C° 0.1 mm 1 mps 743 mmHg 62%
    18:00 +25°C° 0.1 mm 1 mps 743 mmHg 64%
    19:00 +24°C° 0 mm 1 mps 742 mmHg 69%
    20:00 +22°C° 0 mm 1 mps 742 mmHg 74%
    21:00 +20°C° 0 mm 1 mps 742 mmHg 79%
    22:00 +19°C° 0 mm 2 mps 742 mmHg 81%
    23:00 +18°C° 0 mm 2 mps 742 mmHg 82%

    Day after tomorrow, 23 July, Tuesday

    Time Temperature Precipitation Wind Pressure Humidity
    00:00 +18°C° 0 mm 2 mps 742 mmHg 84%
    01:00 +18°C° 0 mm 2 mps 742 mmHg 84%
    02:00 +18°C° 0 mm 2 mps 741 mmHg 85%
    03:00 +19°C° 0 mm 1 mps 741 mmHg 86%
    04:00 +18°C° 0.1 mm 2 mps 741 mmHg 87%
    05:00 +17°C° 0.1 mm 2 mps 741 mmHg 88%
    06:00 +17°C° 0.1 mm 2 mps 741 mmHg 89%
    07:00 +17°C° 1.5 mm 3 mps 741 mmHg 91%
    08:00 +17°C° 1.5 mm 3 mps 740 mmHg 92%
    09:00 +17°C° 1.5 mm 4 mps 740 mmHg 94%
    10:00 +17°C° 1.4 mm 4 mps 740 mmHg 94%
    11:00 +17°C° 1.4 mm 4 mps 740 mmHg 94%
    12:00 +16°C° 1.4 mm 5 mps 740 mmHg 94%
    13:00 +17°C° 0.1 mm 5 mps 740 mmHg 93%
    14:00 +17°C° 0.1 mm 5 mps 740 mmHg 92%
    15:00 +17°C° 0.1 mm 5 mps 740 mmHg 92%
    16:00 +17°C° 0.2 mm 5 mps 740 mmHg 93%
    17:00 +17°C° 0.2 mm 5 mps 740 mmHg 93%
    18:00 +18°C° 0.2 mm 4 mps 740 mmHg 94%
    19:00 +17°C° 0.2 mm 5 mps 740 mmHg 94%
    20:00 +16°C° 0.2 mm 5 mps 740 mmHg 95%
    21:00 +16°C° 0.2 mm 5 mps 740 mmHg 95%
    22:00 +16°C° 0.9 mm 5 mps 740 mmHg 95%
    23:00 +16°C° 0.9 mm 5 mps 740 mmHg 96%

    24 July, Wednesday

    Time Temperature Precipitation Wind Pressure Humidity
    00:00 +16°C° 0.9 mm 5 mps 740 mmHg 96%
    01:00 +17°C° 0.3 mm 4 mps 740 mmHg 97%
    02:00 +17°C° 0.3 mm 4 mps 740 mmHg 97%
    03:00 +17°C° 0.3 mm 3 mps 740 mmHg 97%
    04:00 +17°C° 0 mm 3 mps 740 mmHg 97%
    05:00 +17°C° 0 mm 4 mps 740 mmHg 96%
    06:00 +15°C° 0 mm 4 mps 740 mmHg 96%
    07:00 +17°C° 0.1 mm 4 mps 741 mmHg 95%
    08:00 +17°C° 0.1 mm 4 mps 741 mmHg 94%
    09:00 +18°C° 0.1 mm 4 mps 741 mmHg 93%
    10:00 +18°C° 0 mm 4 mps 741 mmHg 92%
    11:00 +18°C° 0 mm 3 mps 742 mmHg 90%
    12:00 +19°C° 0 mm 3 mps 742 mmHg 89%
    13:00 +19°C° 0 mm 3 mps 742 mmHg 88%
    14:00 +20°C° 0 mm 3 mps 742 mmHg 86%
    15:00 +20°C° 0 mm 3 mps 742 mmHg 84%
    16:00 +20°C° 0 mm 3 mps 742 mmHg 85%
    17:00 +20°C° 0 mm 3 mps 742 mmHg 85%
    18:00 +20°C° 0 mm 3 mps 743 mmHg 85%
    19:00 +19°C° 0 mm 2 mps 743 mmHg 88%
    20:00 +18°C° 0 mm 2 mps 743 mmHg 90%
    21:00 +17°C° 0 mm 2 mps 743 mmHg 93%
    22:00 +17°C° 0 mm 2 mps 743 mmHg 94%
    23:00 +17°C° 0 mm 2 mps 743 mmHg 94%

    25 July, Thursday

    Time Temperature Precipitation Wind Pressure Humidity
    00:00 +16°C° 0 mm 2 mps 743 mmHg 95%
    01:00 +16°C° 0 mm 2 mps 743 mmHg 95%
    02:00 +16°C° 0 mm 2 mps 743 mmHg 95%
    03:00 +16°C° 0 mm 2 mps 743 mmHg 95%
    04:00 +16°C° 0 mm 2 mps 743 mmHg 94%
    05:00 +16°C° 0 mm 2 mps 744 mmHg 93%
    06:00 +16°C° 0 mm 2 mps 744 mmHg 92%
    07:00 +17°C° 0 mm 2 mps 744 mmHg 89%
    08:00 +18°C° 0 mm 3 mps 744 mmHg 87%
    09:00 +18°C° 0 mm 3 mps 744 mmHg 85%
    10:00 +19°C° 0.1 mm 3 mps 744 mmHg 83%
    11:00 +19°C° 0.1 mm 3 mps 744 mmHg 82%
    12:00 +20°C° 0.1 mm 2 mps 745 mmHg 80%
    13:00 +20°C° 0 mm 2 mps 744 mmHg 80%
    14:00 +21°C° 0 mm 2 mps 744 mmHg 79%
    15:00 +21°C° 0 mm 2 mps 744 mmHg 78%
    16:00 +21°C° 0.1 mm 2 mps 744 mmHg 78%
    17:00 +23°C° 0.1 mm 2 mps 744 mmHg 78%
    18:00 +24°C° 0.1 mm 2 mps 744 mmHg 78%
    19:00 +22°C° 0.1 mm 1 mps 744 mmHg 80%
    20:00 +21°C° 0.1 mm 1 mps 744 mmHg 83%
    21:00 +20°C° 0.1 mm 1 mps 744 mmHg 85%
    22:00 +19°C° 0 mm 1 mps 744 mmHg 86%
    23:00 +18°C° 0 mm 2 mps 744 mmHg 87%

    26 July, Friday

    Time Temperature Precipitation Wind Pressure Humidity
    00:00 +17°C° 0 mm 2 mps 744 mmHg 87%
    01:00 +17°C° 0 mm 2 mps 744 mmHg 88%
    02:00 +17°C° 0 mm 2 mps 744 mmHg 89%
    03:00 +16°C° 0 mm 3 mps 744 mmHg 90%
    04:00 +16°C° 0 mm 3 mps 744 mmHg 90%
    05:00 +16°C° 0 mm 2 mps 744 mmHg 89%
    06:00 +16°C° 0 mm 2 mps 744 mmHg 89%
    07:00 +18°C° 0 mm 3 mps 744 mmHg 84%
    08:00 +19°C° 0 mm 3 mps 744 mmHg 80%
    09:00 +21°C° 0 mm 3 mps 744 mmHg 76%
    10:00 +22°C° 0 mm 3 mps 743 mmHg 70%
    11:00 +24°C° 0 mm 3 mps 743 mmHg 65%
    12:00 +25°C° 0 mm 3 mps 743 mmHg 60%
    13:00 +25°C° 0.1 mm 4 mps 743 mmHg 62%
    14:00 +25°C° 0.1 mm 4 mps 743 mmHg 64%
    15:00 +25°C° 0.1 mm 5 mps 742 mmHg 66%
    16:00 +25°C° 0.1 mm 5 mps 742 mmHg 67%
    17:00 +23°C° 0.1 mm 4 mps 742 mmHg 68%
    18:00 +22°C° 0.1 mm 4 mps 742 mmHg 69%
    19:00 +20°C° 0 mm 4 mps 742 mmHg 72%
    20:00 +19°C° 0 mm 4 mps 742 mmHg 75%
    21:00 +17°C° 0 mm 4 mps 742 mmHg 78%
    22:00 +16°C° 0 mm 3 mps 742 mmHg 80%
    23:00 +14°C° 0 mm 3 mps 742 mmHg 81%
    Show more